Location: Unspecified
(43.8044°N, 11.0278°E)
Time: 05:34:47
(UTC+02:00)

Resurs 1-4 Rocket - Visible Passes

Search period start: 01 September 2016 00:00
Search period end: 11 September 2016 00:00
Orbit: 799 x 815 km, 98.4° (Epoch: 31 August)

Date Brightness Start Highest point End Pass type
(mag) Time Alt. Az. Time Alt. Az. Time Alt. Az.
01 Sep 4.3 02:46:57 10° NE 02:50:16 17° E 02:50:49 16° E visible
01 Sep 2.1 04:25:20 10° N 04:30:34 66° WNW 04:31:53 48° SW visible
02 Sep 2.1 04:00:45 10° NNE 04:06:03 77° ESE 04:06:57 61° SSE visible
02 Sep 3.8 05:42:07 10° NNW 05:45:16 16° WNW 05:48:02 11° W visible
03 Sep 2.8 03:36:22 10° NNE 03:41:27 46° E 03:42:01 45° ESE visible
03 Sep 3.3 05:16:48 10° N 05:21:00 25° WNW 05:23:06 20° W visible
04 Sep 3.6 03:12:13 10° NE 03:16:46 28° E 03:17:05 28° ESE visible
04 Sep 2.7 04:51:48 10° N 04:56:41 39° WNW 04:58:09 32° WSW visible
05 Sep 4.3 02:48:31 10° NE 02:51:59 17° E 02:52:09 17° E visible
05 Sep 2.1 04:27:02 10° N 04:32:15 64° WNW 04:33:13 53° WSW visible
06 Sep 2.0 04:02:26 10° NNE 04:07:45 80° ESE 04:08:18 71° SSE visible
06 Sep 3.8 05:43:53 10° NNW 05:46:55 16° WNW 05:49:22 12° W visible
07 Sep 2.7 03:38:01 10° NNE 03:43:09 49° E 03:43:21 48° ESE visible
07 Sep 3.3 05:18:31 10° N 05:22:41 24° WNW 05:24:26 20° W visible
08 Sep 3.6 03:13:52 10° NE 03:18:25 30° E 03:18:25 30° E visible
08 Sep 2.7 04:53:30 10° N 04:58:21 38° WNW 04:59:30 34° W visible
09 Sep 4.3 02:50:06 10° NE 02:53:29 18° E 02:53:29 18° E visible
09 Sep 2.1 04:28:43 10° N 04:33:56 61° WNW 04:34:34 57° WSW visible
10 Sep 4.8 02:27:52 10° ENE 02:28:32 10° E 02:28:32 10° E visible
10 Sep 2.0 04:04:07 10° NNE 04:09:26 83° ESE 04:09:37 81° SE visible
10 Sep 3.9 05:45:40 10° NNW 05:48:35 15° WNW 05:50:42 12° W visible
